sat.trackr.live / text

‹ back to catalog

STARLINK-4135

NORAD 53248 · 2022-086G

PAYLOAD ACTIVE UNKNOWN

§ Identity

Operator
Country
US
Launch date
2022-07-24
Launch site
AFETR
Launch vehicle
Mass (kg)
RCS (m²)

Purposes: comms

External: N2YO · Heavens-Above · Gunter

§ Orbital elements

Epoch: 2026-05-25T05:09:03.068640Z

Period
95.44 min
Inclination
53.2142°
Eccentricity
0.0001527
Mean motion
15.08851211 rev/d
Perigee alt
538.7 km
Apogee alt
540.8 km
Semi-major
6,917.8 km
B*
-1.7471e-4
RAAN
215.6919°
Arg perigee
85.1142°
Mean anomaly
275.0025°
Rev number
21,286

§ Raw data

STARLINK-41351 53248U 22086G   26145.21461885 -.00003068  00000+0 -17471-3 0  99942 53248  53.2142 215.6919 0001527  85.1142 275.0025 15.08851211212862

JSON: /api/v1/satellites/53248 · /tle

For live sub-satellite position, see the globe view (requires WebGL).

§ Visibility from observer

Set your observer location to see the next 7 days of passes ≥ 10°. The values pass through the URL so the page stays shareable.

No JS? Fill the form by hand. The geolocation button needs JavaScript.